Wind_Speed
34 34 33 33 33 33 33 32 31 31 32 32 32 33 33 33 32 32 31 31 31 30 30 30 30 29 29 29 28 28 27 26 26 25 25 24 24 23 23 23 23 22 21
36 36 35 35 35 34 34 34 34 33 33 33 34 34 34 34 34 34 33 33 33 33 33 32 32 32 31 31 30 29 29 28 27 27 26 26 26 26 25 24 24 23 23
38 38 37 37 37 36 36 36 36 36 36 35 35 35 35 35 35 35 35 35 35 35 35 34 34 34 34 33 32 32 31 30 30 29 28 28 27 27 26 26 26 26 26
40 39 39 39 39 38 38 38 38 38 38 38 37 37 37 37 37 37 37 38 38 37 37 37 36 36 36 35 35 34 34 33 33 32 31 31 30 30 29 28 28 28 28
42 41 41 41 41 41 40 40 40 40 40 40 40 40 40 40 39 39 39 39 40 39 39 39 39 38 37 38 38 37 37 36 36 35 35 34 33 33 32 32 30 30 30
44 43 43 43 43 43 43 42 42 42 42 43 42 42 42 42 42 42 41 41 41 41 41 41 41 40 40 40 40 40 40 39 39 39 38 37 37 36 35 35 34 33 32
46 46 46 46 46 45 45 45 44 44 44 44 44 44 43 43 44 44 44 43 43 43 43 43 42 42 42 42 42 42 42 42 42 42 41 40 39 39 38 37 36 35 34
48 48 48 48 48 47 47 46 46 46 45 45 45 45 45 45 45 45 45 45 45 45 45 45 45 44 44 44 44 44 45 45 44 44 43 43 42 41 40 39 39 38 37
51 51 51 50 50 50 49 48 48 47 48 47 46 47 47 47 46 46 47 47 47 47 46 46 46 46 47 47 46 46 46 46 46 46 46 45 44 43 43 42 41 40 40
53 53 52 52 52 52 52 51 50 50 50 50 49 48 49 49 49 49 48 49 48 48 48 48 47 48 48 48 48 48 48 48 48 48 47 47 46 46 45 44 44 43 43
54 54 55 54 54 54 53 53 53 52 52 52 51 50 50 50 50 50 50 50 50 50 50 50 50 49 49 49 49 49 49 49 49 49 49 49 48 48 47 47 46 45 45
55 56 57 57 56 56 55 55 55 55 54 54 54 53 53 52 52 52 52 52 52 52 52 51 51 52 52 52 52 51 50 50 50 50 50 50 50 50 50 49 48 48 47
57 57 58 58 58 58 57 57 56 56 56 56 55 55 55 55 54 54 54 54 54 54 53 53 53 54 54 54 54 53 52 52 52 52 52 52 52 51 51 51 50 50 50
58 59 60 59 59 59 59 59 58 58 58 58 57 57 56 57 56 56 56 57 57 56 56 55 54 54 55 55 55 55 54 54 54 54 54 53 53 53 52 52 52 52 52
60 60 60 60 59 59 60 61 60 59 59 59 59 59 58 58 58 58 58 58 58 58 58 57 57 56 56 56 56 56 56 56 56 55 56 56 55 54 54 53 54 53 54
61 61 61 61 61 60 60 61 61 60 61 61 61 60 60 60 60 60 59 59 60 60 59 58 58 58 58 58 57 58 58 58 57 57 56 56 56 56 55 54 55 55 54
60 61 61 61 62 62 61 61 62 62 63 63 62 62 61 62 62 62 61 60 60 60 60 60 60 60 60 60 59 59 59 58 57 58 58 57 57 57 57 56 56 56 56
61 61 62 62 63 63 63 63 63 64 64 64 64 63 63 62 62 62 62 62 62 62 61 60 59 59 60 60 60 59 59 59 58 58 58 58 58 57 58 57 57 57 57
61 62 62 63 63 64 64 65 65 65 64 64 64 64 64 63 63 63 63 62 62 61 61 60 59 59 59 59 59 59 58 58 58 58 58 58 57 57 57 57 58 58 58
60 61 62 62 63 64 64 65 65 65 64 64 64 64 63 63 63 63 63 62 61 61 61 61 60 59 59 59 60 59 58 58 58 57 58 57 57 56 56 57 59 59 58
58 59 59 60 61 62 63 64 65 65 65 64 64 64 63 63 63 62 62 62 62 62 61 61 61 60 59 59 58 58 58 58 57 58 58 58 58 57 57 58 58 58 58
57 58 59 59 60 61 62 63 64 64 65 65 64 64 64 64 63 63 63 63 63 62 61 60 60 59 59 59 58 58 58 58 58 58 58 58 58 58 58 57 58 58 57
57 58 59 60 60 61 62 63 63 64 63 64 64 63 63 63 63 63 62 62 62 62 61 60 59 58 58 58 58 58 58 58 58 58 58 59 59 58 58 58 57 57 56
57 58 59 59 60 60 61 62 63 63 63 63 63 63 62 62 61 62 61 61 60 60 60 60 59 59 58 58 58 58 59 58 58 58 59 59 59 59 58 57 56 56 57
56 57 58 58 59 59 60 60 62 63 63 63 63 63 62 62 61 61 61 60 60 60 60 60 60 59 59 60 59 59 59 59 59 58 58 59 59 59 58 57 56 56 57
55 56 56 57 58 58 59 60 61 62 62 62 62 62 62 61 61 61 60 60 60 60 61 60 59 59 58 58 58 58 58 58 58 57 57 58 58 58 58 57 57 57 56
Wind_Direction
248 249 249 250 251 251 251 252 253 254 254 254 254 254 254 255 254 255 255 255 255 255 255 256 257 257 258 258 260 261 261 262 263 264 265 266 267 269 273 272 270 270 270
250 250 250 251 251 252 252 252 253 254 255 255 255 255 254 255 254 254 255 255 256 256 256 256 257 257 258 258 259 260 261 261 262 264 265 265 266 267 271 272 271 271 270
251 251 251 251 251 252 253 254 254 255 256 256 256 256 255 255 254 255 255 255 256 257 257 257 257 258 258 259 259 260 261 261 262 263 264 265 265 266 269 270 270 270 271
251 252 252 252 252 253 254 255 256 256 256 256 257 257 257 257 256 256 256 256 256 257 257 257 258 258 258 258 258 259 260 261 261 261 262 263 264 265 267 268 269 269 270
252 253 253 253 253 253 254 255 255 257 257 257 257 257 257 258 257 257 257 257 257 257 258 258 258 258 258 258 258 259 259 259 260 261 261 261 262 263 265 266 267 268 270
253 253 253 254 254 255 255 256 256 257 257 257 257 258 258 257 258 258 258 258 258 258 258 258 258 258 258 259 258 259 259 259 260 260 261 261 262 262 263 264 265 266 268
253 254 254 255 255 256 256 257 257 258 258 258 258 258 258 258 258 258 258 259 259 259 260 259 259 259 260 260 259 259 259 260 260 260 260 261 262 262 262 264 265 266 266
253 254 255 255 255 256 257 258 258 259 259 259 258 258 257 257 258 258 259 259 260 260 260 259 259 259 260 261 260 260 259 259 259 259 260 261 262 262 263 264 264 264 265
253 254 254 255 255 256 257 258 258 258 258 258 259 258 258 258 258 258 258 259 260 260 260 260 260 259 260 261 261 261 261 260 260 260 260 261 261 262 263 263 264 264 264
254 254 255 255 255 256 257 257 257 258 258 258 259 259 259 259 259 259 258 259 260 260 261 261 261 260 261 261 261 261 261 261 261 261 261 261 261 262 262 263 263 263 263
254 255 255 256 256 256 257 257 257 257 258 258 259 260 260 260 260 260 259 259 259 259 260 261 261 261 261 261 261 261 261 261 261 261 261 261 261 261 261 262 263 263 263
255 255 255 255 256 256 256 256 257 257 258 258 259 259 260 260 260 260 260 260 260 259 260 260 261 261 261 261 261 261 261 261 261 262 262 261 261 261 261 262 262 262 262
255 255 255 256 256 256 256 256 257 257 258 258 258 259 259 260 260 260 261 260 260 260 260 261 261 261 261 261 261 261 261 262 262 262 262 261 261 261 261 261 262 262 263
255 256 256 256 257 257 257 258 258 258 258 258 258 259 259 259 260 260 261 261 261 261 261 261 261 262 262 262 261 261 261 261 262 261 261 261 261 261 261 261 262 262 262
256 256 257 257 257 257 257 258 258 258 258 258 258 259 260 260 260 261 262 262 262 262 262 262 262 262 261 261 261 261 261 261 261 261 261 260 260 260 261 262 262 262 262
257 257 257 257 258 258 258 257 257 257 258 258 259 259 260 260 261 261 262 262 262 263 262 262 262 262 261 261 261 261 261 261 261 261 261 260 260 260 261 261 261 261 261
257 257 257 257 258 258 258 258 258 257 257 258 258 259 260 260 261 261 262 262 263 263 263 263 262 261 261 261 261 261 261 261 261 261 261 260 260 260 260 260 261 261 261
258 258 258 258 257 258 258 258 258 258 258 258 258 259 259 260 261 261 261 262 262 263 263 263 262 262 261 261 261 261 261 261 260 261 260 260 260 259 260 259 260 260 261
259 259 259 259 258 258 258 258 258 259 259 259 258 259 259 259 260 261 261 262 262 262 262 262 262 262 262 261 261 260 261 261 260 260 260 261 260 259 259 260 260 261 261
260 260 259 259 259 259 259 259 259 259 259 259 258 258 259 259 259 260 260 260 261 261 262 263 263 263 262 261 260 260 260 261 260 260 260 261 261 260 260 261 261 262 262
260 260 260 260 260 260 260 260 260 260 259 259 258 258 258 258 259 259 260 260 260 261 262 263 264 263 262 261 259 259 259 259 259 260 260 260 261 260 261 262 262 262 262
261 261 261 262 261 261 261 261 261 260 259 258 259 259 258 258 258 258 259 260 260 261 262 262 262 262 262 260 259 259 259 259 259 260 260 260 261 261 261 262 262 262 262
263 263 263 263 263 263 262 261 261 260 259 258 258 258 258 258 257 258 259 260 260 261 261 261 261 262 262 260 259 259 259 259 259 260 260 260 261 261 261 262 263 262 263
264 263 264 264 264 264 263 262 260 259 258 258 258 257 257 257 258 258 259 260 260 260 261 261 261 261 261 260 259 259 259 259 259 259 260 260 260 261 261 261 261 262 262
265 265 265 265 264 264 263 262 260 259 258 257 257 257 257 258 258 258 259 259 259 259 259 260 260 260 261 261 260 260 259 259 259 259 259 260 259 260 260 261 261 261 262
266 266 265 265 265 264 263 262 261 260 258 257 257 257 257 258 258 258 259 259 258 259 259 259 259 259 259 260 259 259 259 259 259 259 259 259 259 259 259 260 261 261 262
Height
5788 5789 5791 5792 5794 5795 5796 5797 5798 5800 5801 5802 5803 5804 5805 5806 5807 5808 5809 5810 5812 5813 5813 5814 5815 5817 5817 5818 5819 5819 5820 5820 5821 5821 5822 5822 5822 5823 5823 5823 5823 5823 5823
5780 5782 5783 5785 5786 5787 5789 5790 5791 5792 5793 5794 5795 5796 5798 5799 5800 5801 5802 5803 5805 5806 5807 5808 5809 5810 5810 5812 5812 5813 5814 5814 5815 5815 5816 5816 5817 5817 5818 5818 5818 5818 5818
5772 5774 5775 5777 5778 5780 5781 5782 5783 5784 5785 5786 5788 5789 5790 5791 5792 5793 5794 5795 5797 5798 5799 5800 5801 5802 5803 5804 5805 5806 5807 5808 5809 5809 5810 5810 5811 5811 5812 5812 5812 5812 5813
5764 5765 5767 5768 5770 5771 5772 5774 5775 5776 5777 5778 5779 5780 5781 5782 5784 5785 5786 5787 5788 5789 5791 5792 5793 5794 5795 5796 5797 5798 5799 5800 5801 5802 5803 5803 5804 5805 5805 5806 5806 5806 5806
5754 5756 5758 5759 5761 5762 5763 5764 5766 5767 5768 5769 5770 5771 5772 5773 5774 5776 5777 5778 5779 5780 5781 5783 5784 5785 5786 5787 5788 5790 5791 5792 5793 5794 5795 5796 5796 5797 5798 5799 5799 5799 5800
5745 5746 5748 5749 5751 5752 5753 5755 5756 5757 5758 5759 5760 5761 5762 5764 5765 5766 5767 5768 5769 5771 5772 5773 5774 5776 5777 5778 5779 5780 5782 5783 5784 5785 5786 5787 5788 5789 5790 5791 5791 5792 5792
5734 5735 5737 5739 5740 5742 5743 5744 5746 5747 5748 5749 5750 5751 5752 5753 5754 5756 5757 5758 5759 5761 5762 5763 5764 5765 5767 5768 5769 5771 5772 5773 5774 5776 5777 5778 5779 5780 5781 5782 5783 5784 5784
5722 5724 5726 5727 5729 5730 5732 5733 5734 5735 5737 5738 5739 5740 5741 5743 5744 5745 5746 5747 5749 5750 5751 5752 5754 5755 5756 5758 5759 5760 5761 5763 5764 5765 5766 5768 5769 5770 5771 5773 5774 5774 5775
5710 5711 5713 5715 5717 5718 5720 5722 5723 5724 5725 5726 5727 5728 5730 5731 5733 5734 5735 5736 5737 5739 5740 5741 5742 5744 5745 5746 5748 5749 5750 5751 5753 5754 5755 5757 5758 5759 5761 5762 5763 5764 5765
5696 5698 5700 5702 5704 5705 5707 5709 5710 5712 5713 5714 5715 5716 5717 5718 5720 5722 5724 5724 5725 5726 5728 5729 5731 5732 5733 5734 5736 5737 5738 5740 5741 5742 5744 5745 5747 5748 5750 5751 5752 5753 5755
5683 5685 5686 5688 5690 5692 5694 5695 5697 5698 5700 5701 5702 5703 5704 5705 5706 5708 5710 5712 5713 5714 5715 5716 5718 5719 5720 5722 5723 5724 5726 5727 5728 5730 5731 5733 5734 5736 5737 5739 5740 5742 5743
5668 5670 5672 5674 5676 5677 5679 5681 5683 5684 5686 5687 5688 5690 5691 5692 5694 5695 5696 5698 5699 5701 5702 5703 5705 5706 5707 5708 5710 5711 5712 5714 5715 5717 5718 5720 5721 5723 5724 5726 5728 5729 5731
5654 5655 5657 5659 5661 5663 5665 5667 5668 5670 5671 5673 5674 5676 5677 5678 5679 5680 5682 5683 5685 5687 5688 5690 5691 5692 5693 5694 5696 5697 5698 5700 5701 5703 5704 5706 5708 5709 5711 5712 5714 5716 5718
5638 5640 5642 5644 5646 5648 5650 5651 5653 5655 5657 5658 5660 5661 5662 5664 5665 5666 5667 5668 5670 5672 5673 5675 5676 5677 5678 5679 5681 5682 5683 5685 5686 5688 5689 5691 5693 5695 5697 5698 5700 5702 5704
5622 5624 5626 5628 5630 5632 5634 5636 5638 5640 5641 5643 5644 5646 5647 5649 5650 5651 5652 5653 5654 5656 5658 5660 5661 5662 5663 5664 5665 5666 5668 5669 5671 5672 5674 5676 5678 5680 5682 5684 5686 5687 5689
5606 5608 5610 5612 5613 5615 5617 5619 5621 5623 5625 5627 5628 5630 5631 5633 5634 5635 5636 5637 5638 5639 5641 5644 5645 5646 5646 5648 5649 5650 5652 5653 5655 5656 5657 5659 5662 5664 5666 5669 5670 5672 5674
5589 5591 5593 5595 5597 5598 5600 5602 5604 5606 5608 5610 5612 5613 5615 5616 5617 5619 5620 5621 5621 5623 5625 5627 5628 5629 5630 5631 5633 5634 5635 5637 5638 5640 5641 5643 5645 5648 5650 5652 5655 5657 5659
5572 5574 5576 5578 5579 5581 5583 5585 5587 5588 5590 5592 5594 5596 5598 5599 5600 5602 5603 5604 5605 5606 5608 5609 5611 5611 5613 5614 5615 5617 5618 5620 5622 5623 5625 5627 5629 5631 5634 5636 5638 5640 5642
5555 5556 5558 5560 5562 5563 5565 5566 5568 5570 5572 5574 5576 5578 5580 5581 5583 5584 5585 5587 5588 5589 5590 5592 5594 5595 5596 5597 5598 5600 5602 5603 5605 5607 5609 5611 5613 5615 5617 5619 5621 5623 5626
5537 5539 5540 5542 5543 5545 5546 5548 5550 5552 5554 5556 5558 5559 5561 5563 5565 5566 5568 5569 5570 5572 5573 5575 5576 5578 5579 5579 5581 5583 5585 5587 5589 5591 5593 5595 5598 5599 5601 5603 5605 5607 5609
5520 5521 5523 5524 5525 5526 5528 5529 5531 5533 5535 5537 5539 5541 5543 5545 5547 5549 5550 5552 5553 5555 5556 5558 5560 5561 5562 5563 5565 5566 5569 5571 5573 5575 5577 5580 5582 5584 5585 5587 5588 5590 5592
5503 5504 5506 5506 5507 5509 5510 5511 5512 5514 5516 5518 5521 5523 5525 5527 5529 5531 5533 5534 5536 5538 5540 5541 5543 5544 5546 5546 5548 5549 5552 5555 5558 5561 5561 5563 5565 5567 5569 5571 5572 5574 5576
5487 5487 5488 5489 5489 5491 5491 5492 5493 5495 5497 5500 5502 5504 5507 5509 5511 5513 5515 5517 5519 5520 5523 5525 5526 5528 5529 5531 5532 5534 5535 5537 5541 5542 5544 5547 5548 5551 5552 5554 5556 5558 5560
5469 5470 5470 5471 5471 5472 5473 5473 5474 5476 5478 5481 5483 5486 5488 5491 5493 5496 5498 5500 5502 5504 5506 5508 5510 5511 5512 5513 5515 5517 5518 5521 5523 5525 5527 5530 5532 5534 5536 5538 5540 5541 5543
5452 5452 5452 5453 5453 5454 5454 5454 5455 5456 5459 5462 5465 5467 5470 5473 5476 5478 5480 5483 5485 5487 5488 5490 5492 5493 5495 5496 5498 5500 5502 5504 5507 5509 5510 5513 5515 5517 5520 5522 5523 5525 5526
5435 5435 5435 5435 5435 5435 5435 5435 5436 5437 5440 5443 5446 5449 5452 5455 5457 5459 5461 5464 5467 5469 5471 5473 5474 5476 5478 5480 5481 5483 5486 5488 5490 5493 5494 5496 5498 5500 5503 5506 5507 5508 5510